Location: Hoyos del Collado
(40.3594°N, 5.2003°W)
Time: 08:40:54
(UTC+00:00)

Cosmos 2151 Rocket - Pass Details

Date: 18 April 2024
Orbit: 612 x 637 km, 82.5° (Epoch: 17 May)

Event Time Altitude Azimuth Distance (km) Brightness Sun altitude
Exits shadow 20:00:41 - 156° (SSE) 2,143 5.9 -11.1°
Reaches altitude 10° 20:01:09 10° 153° (SSE) 1,970 5.7 -11.1°
Maximum altitude 20:05:02 32° 90° (E) 1,064 4.3 -11.8°
Drops below altitude 10° 20:08:58 10° 28° (NNE) 1,997 6.2 -12.5°
Sets 20:11:22 0° 18° (NNE) 2,913 7.1 -12.9°
